Fremont, NE

11:56 PM CDT on June 23, 2017 (GMT -0500)
Fremont Municipal

Weather History for KFET - January, 2015

Change the Weather History Date:

Thursday, January 8, 2015

  Actual Average Record
Temperature  
Mean Temperature 18 °F -  
Max Temperature 32 °F 28 °F 66 °F (2003)
Min Temperature 4 °F 8 °F -13 °F (1970)
Degree Days  
Heating Degree Days 47    
Moisture  
Dew Point 8 °F    
Average Humidity 68    
Maximum Humidity 75    
Minimum Humidity 60    
Precipitation  
Precipitation 0.00 in - - ()
Sea Level Pressure  
Sea Level Pressure 30.17 in    
Wind  
Wind Speed 18 mph (WSW)    
Max Wind Speed 34 mph    
Max Gust Speed 47 mph    
Visibility 10 miles    
Events      
Averages and records for this station are not official NWS values.
T = Trace of Precipitation, MM = Missing Value Source: NWS Daily Summary

Daily Weather History Graph

Daily Weather History Graph

Search for Another Location

Airport or City:

Trip Planner

Search our weather history database for the weather conditions in past years. The results will help you decide how hot, cold, wet, or windy it might be!

Date:

Astronomy

Jan. 08, 2015 Rise Set
Actual Time 7:52 AM CST 5:13 PM CST
Civil Twilight 7:21 AM CST 5:44 PM CST
Nautical Twilight 6:46 AM CST 6:19 PM CST
Astronomical Twilight 6:13 AM CST 6:52 PM CST
Moon 8:56 PM CST (1/8) 9:36 AM CST (1/8)
Length of Visible Light 10h 23m
Length of Day
9h 21m
Waning Gibbous, 89% of the Moon is Illuminated
Jan 8
Waning Gibbous
Jan 13
Last Quarter
Jan 20
New
Jan 26
First Quarter
Feb 3
Full

Hourly Weather History & Observations

Time (CST) Temp. Windchill Dew Point Humidity Pressure Visibility Wind Dir Wind Speed Gust Speed Precip Events Conditions
12:15 AM 4.1 °F -11.1 °F -4.9 °F 66% 30.54 in 10.0 mi South 10.4 mph 17.3 mph N/A   Clear
12:35 AM 4.1 °F -12.0 °F -4.4 °F 68% 30.51 in 10.0 mi South 11.5 mph - N/A   Clear
12:55 AM 4.5 °F -11.5 °F -4.0 °F 68% 30.50 in 10.0 mi South 11.5 mph - N/A   Clear
1:15 AM 4.6 °F -12.0 °F -3.8 °F 68% 30.47 in 10.0 mi South 12.7 mph - N/A   Clear
1:35 AM 5.4 °F -11.1 °F -3.5 °F 67% 30.45 in 10.0 mi South 12.7 mph 19.6 mph N/A   Clear
1:55 AM 5.7 °F -12.0 °F -3.1 °F 67% 30.42 in 10.0 mi South 15.0 mph 20.7 mph N/A   Clear
2:15 AM 6.4 °F -11.7 °F -2.6 °F 67% 30.41 in 10.0 mi South 16.1 mph 20.7 mph N/A   Clear
2:35 AM 6.8 °F -9.3 °F -2.2 °F 67% 30.39 in 10.0 mi South 12.7 mph 19.6 mph N/A   Clear
2:55 AM 7.3 °F -10.0 °F -2.2 °F 65% 30.37 in 10.0 mi South 15.0 mph 19.6 mph N/A   Clear
3:15 AM 7.7 °F -11.2 °F -1.5 °F 66% 30.32 in 10.0 mi South 18.4 mph 23.0 mph N/A   Clear
3:35 AM 8.1 °F -10.7 °F -1.3 °F 66% 30.30 in 10.0 mi South 18.4 mph 27.6 mph N/A   Clear
3:55 AM 8.8 °F -11.2 °F -0.4 °F 66% 30.26 in 10.0 mi South 21.9 mph 32.2 mph N/A   Clear
4:15 AM 9.5 °F -9.3 °F -0.0 °F 65% 30.23 in 10.0 mi South 19.6 mph 27.6 mph N/A   Clear
4:35 AM 10.4 °F -8.6 °F 0.3 °F 64% 30.20 in 10.0 mi South 20.7 mph 27.6 mph N/A   Clear
4:55 AM 10.8 °F -9.0 °F 0.5 °F 63% 30.16 in 10.0 mi South 23.0 mph 31.1 mph N/A   Scattered Clouds
5:15 AM 10.9 °F -9.9 °F 1.2 °F 65% 30.12 in 10.0 mi South 26.5 mph 33.4 mph N/A   Mostly Cloudy
5:35 AM 11.3 °F -3.6 °F 1.6 °F 65% 30.11 in 10.0 mi South 12.7 mph 31.1 mph N/A   Mostly Cloudy
5:55 AM 11.8 °F -5.3 °F 2.3 °F 66% 30.07 in 10.0 mi South 17.3 mph 27.6 mph N/A   Scattered Clouds
6:15 AM 12.2 °F -6.7 °F 2.7 °F 66% 30.00 in 10.0 mi SSE 21.9 mph 32.2 mph N/A   Scattered Clouds
6:35 AM 12.7 °F -6.0 °F 3.2 °F 66% 30.01 in 10.0 mi South 21.9 mph 27.6 mph N/A   Overcast
6:55 AM 13.3 °F -3.4 °F 3.9 °F 66% 29.99 in 10.0 mi South 17.3 mph 25.3 mph N/A   Mostly Cloudy
7:15 AM 14.0 °F -2.5 °F 4.1 °F 65% 30.00 in 10.0 mi SSW 17.3 mph 27.6 mph N/A   Scattered Clouds
7:35 AM 14.7 °F -1.6 °F 4.3 °F 63% 30.00 in 10.0 mi SSW 17.3 mph 28.8 mph N/A   Mostly Cloudy
7:55 AM 14.7 °F -1.1 °F 5.0 °F 65% 29.97 in 10.0 mi SSW 16.1 mph 32.2 mph N/A   Mostly Cloudy
8:15 AM 15.6 °F -1.8 °F 5.9 °F 66% 29.98 in 10.0 mi SSW 20.7 mph 25.3 mph N/A   Scattered Clouds
8:35 AM 16.7 °F 1.0 °F 6.8 °F 65% 29.99 in 10.0 mi SSW 17.3 mph 24.2 mph N/A   Scattered Clouds
8:55 AM 17.2 °F 3.3 °F 7.7 °F 66% 29.98 in 10.0 mi SSW 13.8 mph 25.3 mph N/A   Mostly Cloudy
9:15 AM 17.8 °F 1.5 °F 8.1 °F 66% 29.98 in 10.0 mi SW 19.6 mph 24.2 mph N/A   Scattered Clouds
9:35 AM 18.3 °F 1.8 °F 8.4 °F 65% 29.98 in 10.0 mi SSW 20.7 mph 28.8 mph N/A   Clear
9:55 AM 18.9 °F 4.3 °F 9.5 °F 67% 29.97 in 10.0 mi SW 16.1 mph 26.5 mph N/A   Clear
10:15 AM 19.4 °F 3.2 °F 10.0 °F 67% 29.96 in 10.0 mi SW 20.7 mph 29.9 mph N/A   Scattered Clouds
10:35 AM 19.6 °F 5.2 °F 10.4 °F 68% 29.96 in 10.0 mi SW 16.1 mph 24.2 mph N/A   Scattered Clouds
10:55 AM 21.0 °F 8.6 °F 11.8 °F 68% 29.94 in 10.0 mi SW 12.7 mph 18.4 mph N/A   Clear
11:15 AM 22.3 °F 9.2 °F 13.1 °F 68% 29.94 in 10.0 mi SW 15.0 mph - N/A   Clear
11:35 AM 24.6 °F 13.2 °F 15.1 °F 67% 29.93 in 10.0 mi WSW 12.7 mph - N/A   Scattered Clouds
11:55 AM 26.8 °F 16.5 °F 16.9 °F 66% 29.93 in 10.0 mi WSW 11.5 mph 19.6 mph N/A   Mostly Cloudy
12:15 PM 29.3 °F 19.1 °F 19.2 °F 66% 29.92 in 10.0 mi West 12.7 mph - N/A   Overcast
12:35 PM 30.7 °F 19.2 °F 21.2 °F 68% 29.92 in 10.0 mi West 17.3 mph - N/A   Overcast
12:55 PM 31.8 °F 19.0 °F 23.4 °F 71% 29.93 in 10.0 mi WNW 23.0 mph - N/A   Overcast
1:15 PM 32.0 °F 18.4 °F 23.4 °F 70% 29.96 in 10.0 mi NW 26.5 mph 38.0 mph N/A   Overcast
1:35 PM 31.1 °F 16.9 °F 22.3 °F 70% 29.97 in 10.0 mi NW 27.6 mph 35.7 mph N/A   Overcast
1:55 PM 30.6 °F 17.6 °F 21.9 °F 70% 29.97 in 10.0 mi NW 21.9 mph 32.2 mph N/A   Overcast
2:15 PM 30.2 °F 17.8 °F 22.1 °F 72% 29.98 in 10.0 mi NW 19.6 mph 27.6 mph N/A   Overcast
2:35 PM 30.2 °F 16.8 °F 22.8 °F 74% 29.99 in 10.0 mi NW 23.0 mph 27.6 mph N/A   Overcast
2:55 PM 30.6 °F 15.0 °F 22.6 °F 72% 30.03 in 10.0 mi NW 33.4 mph 42.6 mph N/A   Overcast
3:15 PM 30.2 °F 15.7 °F 22.8 °F 74% 30.05 in 10.0 mi NW 27.6 mph 34.5 mph N/A   Overcast
3:35 PM 29.7 °F 14.0 °F 22.1 °F 73% 30.07 in 10.0 mi NW 32.2 mph 42.6 mph N/A   Overcast
4:15 PM 27.3 °F 11.8 °F 18.7 °F 70% 30.11 in 10.0 mi NNW 27.6 mph 41.4 mph N/A   Mostly Cloudy
4:35 PM 24.8 °F 7.3 °F 16.0 °F 69% 30.13 in 10.0 mi NNW 32.2 mph 42.6 mph N/A   Scattered Clouds
4:55 PM 24.3 °F 7.1 °F 15.6 °F 70% 30.16 in 10.0 mi NW 29.9 mph 39.1 mph N/A   Clear
5:15 PM 22.6 °F 4.6 °F 15.8 °F 75% 30.19 in 10.0 mi NW 31.1 mph 40.3 mph N/A   Scattered Clouds
5:35 PM 21.6 °F 4.7 °F 14.0 °F 73% 30.20 in 10.0 mi NW 25.3 mph 39.1 mph N/A   Mostly Cloudy
5:55 PM 20.7 °F 1.2 °F 11.5 °F 68% 30.24 in 10.0 mi NW 34.5 mph 47.2 mph N/A   Mostly Cloudy
6:15 PM 19.8 °F 1.3 °F 11.3 °F 70% 30.25 in 10.0 mi NW 28.8 mph 36.8 mph N/A   Clear
6:35 PM 19.0 °F -0.5 °F 10.2 °F 69% 30.27 in 10.0 mi NW 32.2 mph 39.1 mph N/A   Clear
6:55 PM 18.5 °F 0.9 °F 11.1 °F 73% 30.28 in 10.0 mi NW 24.2 mph 32.2 mph N/A   Clear
7:15 PM 18.5 °F -0.1 °F 10.4 °F 71% 30.29 in 10.0 mi NW 27.6 mph 41.4 mph N/A   Clear
7:35 PM 18.3 °F 1.0 °F 10.4 °F 71% 30.30 in 10.0 mi NW 23.0 mph 35.7 mph N/A   Clear
7:55 PM 18.0 °F -0.2 °F 10.4 °F 72% 30.31 in 10.0 mi NW 25.3 mph 31.1 mph N/A   Clear
8:15 PM 17.4 °F -0.2 °F 9.9 °F 72% 30.32 in 10.0 mi NW 23.0 mph 32.2 mph N/A   Clear
8:35 PM 17.4 °F -0.2 °F 10.0 °F 73% 30.33 in 10.0 mi NW 23.0 mph 31.1 mph N/A   Clear
8:55 PM 17.2 °F -1.1 °F 9.7 °F 72% 30.34 in 10.0 mi NW 25.3 mph 32.2 mph N/A   Clear
9:15 PM 16.9 °F -1.3 °F 8.6 °F 70% 30.35 in 10.0 mi NW 24.2 mph 31.1 mph N/A   Clear
9:35 PM 16.5 °F -2.1 °F 7.7 °F 68% 30.36 in 10.0 mi NW 25.3 mph 31.1 mph N/A   Clear
9:55 PM 15.8 °F -1.9 °F 7.3 °F 69% 30.36 in 10.0 mi NW 21.9 mph - N/A   Clear
10:15 PM 16.0 °F -2.8 °F 6.8 °F 67% 30.37 in 10.0 mi NW 25.3 mph 34.5 mph N/A   Clear
10:35 PM 15.8 °F -2.7 °F 7.5 °F 70% 30.38 in 10.0 mi NW 24.2 mph 31.1 mph N/A   Scattered Clouds
10:55 PM 15.6 °F -4.3 °F 3.9 °F 60% 30.40 in 10.0 mi NW 28.8 mph 42.6 mph N/A   Scattered Clouds
11:15 PM 14.4 °F -3.4 °F 3.9 °F 63% 30.40 in 10.0 mi NW 20.7 mph 38.0 mph N/A   Clear
11:35 PM 14.0 °F -5.1 °F 4.1 °F 65% 30.40 in 10.0 mi NW 24.2 mph - N/A   Clear
11:55 PM 13.8 °F -4.5 °F 4.8 °F 67% 30.41 in 10.0 mi NW 21.9 mph 32.2 mph N/A   Clear